Location: Hilton Head Island
(32.2163°N, 80.7526°W)
Time: 00:38:45
(UTC-05:00)

Vanguard 2 Rocket - Pass Details

Date: 20 February 2026
Orbit: 553 x 3287 km, 32.9° (Epoch: 5 March)

Event Time Altitude Azimuth Distance (km) Brightness Sun altitude
Rises 14:53:19 0° 272° (W) 7,173 12.0 36.1°
Reaches altitude 10° 14:58:28 10° 273° (W) 5,978 11.7 35.3°
Maximum altitude 15:16:15 88° 5° (N) 2,215 9.4 32.6°
Drops below altitude 10° 15:26:29 10° 96° (E) 3,670 9.7 31.0°
Sets 15:28:53 0° 96° (E) 4,369 10.0 30.6°
